Tracking 19709 objects as of 20-Jun-2019
HD Live streaming from Space Station
objects crossing your sky now

ARIANE 44L R/B

Track ARIANE 44L R/B now!


NORAD ID: 24654
Int'l Code: 1996-063C
Perigee: 383.6 km
Apogee: 34,229.3 km
Inclination: 4.4 °
Period: 604.3 minutes
Semi major axis: 23677 km
RCS: 21.8901 m2 (large)
Launch date: November 13, 1996
Source: France (FR)
Launch site: FRENCH GUIANA (FRGUI)

Note: This is a ROCKET BODY
aabbcc
Your satellite tracking list
Your tracking list is empty




NASA's NSSDC Master Catalog

Two Line Element Set (TLE):
1 24654U 96063C   19171.11485297  .00000001  00000-0  19942-3 0  9990
2 24654   4.3854  14.3788 7147242 147.1711 289.9126  2.38287280191500
Source of the keplerian elements: AFSPC